Location: ????
(55.2778°N, 39.2433°E)
Time: 07:10:44
(UTC+00:00)

NOSS 7 (E) - Pass Details

Date: 14 April 2024
Orbit: 389 x 1684 km, 63.3° (Epoch: 22 May)

Event Time Altitude Azimuth Distance (km) Brightness Sun altitude
Rises 00:30:27 0° 307° (NW) 2,300 7.9 -14.4°
Reaches altitude 10° 00:32:27 10° 301° (WNW) 1,437 6.8 -14.2°
Maximum altitude 00:35:25 48° 225° (SW) 544 4.4 -13.9°
Drops below altitude 10° 00:38:43 10° 150° (SSE) 1,598 7.1 -13.5°
Sets 00:41:04 0° 145° (SE) 2,603 8.2 -13.3°
